Weather History for HEGN - December, 2012

Change the Weather History Date:

Sunday, December 30, 2012

  Actual Average Record
Temperature  
Mean Temperature 66 °F -  
Max Temperature 75 °F 68 °F 76 °F (2014)
Min Temperature 58 °F 52 °F 50 °F (2006)
Cooling Degree Days 2    
Growing Degree Days 16 (Base 50)    
Moisture  
Dew Point 49 °F    
Average Humidity 58    
Maximum Humidity 72    
Minimum Humidity 30    
Precipitation  
Precipitation 0.00 in - - ()
Sea Level Pressure  
Sea Level Pressure 30.04 in    
Wind  
Wind Speed 13 mph ()    
Max Wind Speed 18 mph    
Max Gust Speed -    
Visibility 6.0 miles    
Events      
Averages and records for this station are not official NWS values.
T = Trace of Precipitation, MM = Missing Value Source: Averaged Metar Reports

Daily Weather History Graph

Daily Weather History Graph

Search for Another Location

Airport or City:

Trip Planner

Search our weather history database for the weather conditions in past years. The results will help you decide how hot, cold, wet, or windy it might be!

Date:

Astronomy

Dec. 30, 2012 Rise Set
Actual Time 6:33 AM EET 5:01 PM EET
Civil Twilight 6:08 AM EET 5:26 PM EET
Nautical Twilight 5:39 AM EET 5:55 PM EET
Astronomical Twilight 5:10 AM EET 6:24 PM EET
Moon 6:59 PM EET (12/30) 7:41 AM EET (12/30)
Length of Visible Light 11h 18m
Length of Day
10h 27m
Waning Gibbous, 96% of the Moon is Illuminated
Dec 30
Waning Gibbous
Jan 5
Last Quarter
Jan 11
New
Jan 19
First Quarter
Jan 27
Full

Hourly Weather History & Observations

Time (EET) Temp. Dew Point Humidity Pressure Visibility Wind Dir Wind Speed Gust Speed Precip Events Conditions
12:00 AM 59.0 °F 48.2 °F 67% 30.01 in - WNW 16.1 mph - N/A   Clear
1:00 AM 59.0 °F 50.0 °F 72% 30.01 in - WNW 16.1 mph - N/A   Clear
2:00 AM 59 °F 48 °F 57% 30.03 in 6 mi WNW 18.4 mph - -  
2:00 AM 59.0 °F 48.2 °F 67% 30.01 in - WNW 18.4 mph - N/A   Clear
3:00 AM 59.0 °F 46.4 °F 63% 30.01 in - WNW 17.3 mph - N/A   Clear
4:00 AM 59.0 °F 46.4 °F 63% 30.01 in - NNW 11.5 mph - N/A   Clear
5:00 AM 59.0 °F 46.4 °F 63% 30.04 in - NW 11.5 mph - N/A   Clear
6:00 AM 59.0 °F 46.4 °F 63% 30.04 in - NW 16.1 mph - N/A   Clear
7:00 AM 59.0 °F 46.4 °F 63% 30.06 in - WNW 11.5 mph - N/A   Clear
8:00 AM 61 °F 47 °F 49% 30.08 in 6 mi NW 15.0 mph - -   Partly Cloudy
8:00 AM 60.8 °F 46.4 °F 59% 30.06 in - NW 15.0 mph - N/A   Clear
9:00 AM 64.4 °F 48.2 °F 56% 30.09 in - NW 15.0 mph - N/A   Clear
10:00 AM 66.2 °F 48.2 °F 52% 30.09 in - WNW 15.0 mph - N/A   Clear
11:00 AM 68.0 °F 50.0 °F 52% 30.06 in - NW 11.5 mph - N/A   Clear
12:00 PM 71.6 °F 50.0 °F 46% 30.04 in - North 16.1 mph - N/A   Clear
1:00 PM 73.4 °F 51.8 °F 47% 30.04 in - North 11.5 mph - N/A   Clear
2:00 PM 76 °F 50 °F 30% 30.02 in 6 mi North 15.0 mph - -   Scattered Clouds
2:00 PM 75.2 °F 50.0 °F 41% 30.01 in - North 15.0 mph - N/A   Clear
3:00 PM 71.6 °F 53.6 °F 53% 30.01 in - North 15.0 mph - N/A   Clear
4:00 PM 71.6 °F 53.6 °F 53% 30.01 in - North 16.1 mph - N/A   Clear
5:00 PM 68.0 °F 51.8 °F 56% 30.01 in - North 17.3 mph - N/A   Clear
6:00 PM 66.2 °F 51.8 °F 60% 30.01 in - North 10.4 mph - N/A   Clear
7:00 PM 64.4 °F 53.6 °F 68% 30.04 in - NNW 10.4 mph - N/A   Clear
8:00 PM 63 °F 51 °F 57% 30.06 in 6 mi NW 9.2 mph - -   Partly Cloudy
8:00 PM 62.6 °F 51.8 °F 68% 30.06 in - NW 9.2 mph - N/A   Clear
9:00 PM 60.8 °F 48.2 °F 63% 30.06 in - WNW 6.9 mph - N/A   Clear
10:00 PM 59.0 °F 48.2 °F 67% 30.06 in - WNW 9.2 mph - N/A   Clear
11:00 PM 59.0 °F 46.4 °F 63% 30.06 in - WNW 8.1 mph - N/A   Clear